TimeMDT,TemperatureF,Dew PointF,Humidity,Sea Level PressureIn,VisibilityMPH,Wind Direction,Wind SpeedMPH,Gust SpeedMPH,PrecipitationIn,Events,Conditions,WindDirDegrees,DateUTC
12:58 AM,75.4,53.4,46,29.84,10.0,ESE,16.1,-,N/A,,Clear,110,2013-08-29 06:58:00
1:58 AM,73.2,53.6,50,29.85,10.0,East,15.0,-,N/A,,Clear,100,2013-08-29 07:58:00
2:58 AM,72.3,53.4,51,29.86,10.0,ESE,15.0,-,N/A,,Clear,110,2013-08-29 08:58:00
3:58 AM,71.6,54.0,54,29.87,10.0,ESE,18.4,-,N/A,,Clear,110,2013-08-29 09:58:00
4:58 AM,70.7,52.7,53,29.88,10.0,East,16.1,-,N/A,,Partly Cloudy,100,2013-08-29 10:58:00
5:58 AM,68.9,52.9,57,29.89,10.0,ESE,15.0,-,N/A,,Partly Cloudy,110,2013-08-29 11:58:00
6:58 AM,69.6,52.5,54,29.89,10.0,East,17.3,-,N/A,,Scattered Clouds,100,2013-08-29 12:58:00
7:58 AM,70.3,51.8,52,29.91,10.0,SE,8.1,-,N/A,,Scattered Clouds,130,2013-08-29 13:58:00
8:58 AM,76.6,52.3,43,29.94,10.0,SE,18.4,23.0,N/A,,Partly Cloudy,130,2013-08-29 14:58:00
9:58 AM,79.7,52.3,39,29.95,10.0,ESE,18.4,-,N/A,,Mostly Cloudy,110,2013-08-29 15:58:00
10:58 AM,84.4,51.6,32,29.94,10.0,ESE,21.9,-,N/A,,Scattered Clouds,110,2013-08-29 16:58:00
11:58 AM,87.6,49.3,27,29.95,10.0,ESE,9.2,-,N/A,,Partly Cloudy,120,2013-08-29 17:58:00
12:58 PM,91.6,49.5,24,29.92,10.0,SE,12.7,-,N/A,,Partly Cloudy,140,2013-08-29 18:58:00
1:03 PM,93.2,50.0,23,30.01,10.0,South,12.7,-,N/A,,Partly Cloudy,170,2013-08-29 19:03:00
1:58 PM,91.2,49.3,24,29.91,10.0,East,6.9,-,N/A,,Mostly Cloudy,90,2013-08-29 19:58:00
2:58 PM,92.7,49.3,23,29.90,10.0,Variable,3.5,-,N/A,,Partly Cloudy,0,2013-08-29 20:58:00
3:58 PM,95.9,45.1,17,29.86,10.0,Variable,3.5,-,N/A,,Partly Cloudy,0,2013-08-29 21:58:00
4:58 PM,97.2,40.3,14,29.86,10.0,West,6.9,-,N/A,,Clear,260,2013-08-29 22:58:00
5:58 PM,96.8,39.2,14,29.86,10.0,West,9.2,-,N/A,,Clear,270,2013-08-29 23:58:00
6:58 PM,95.9,33.1,11,29.86,10.0,West,13.8,-,N/A,,Clear,280,2013-08-30 00:58:00
7:58 PM,90.1,32.0,13,29.87,10.0,West,10.4,-,N/A,,Clear,280,2013-08-30 01:58:00
8:53 PM,84.2,30.2,14,29.97,6.0,WNW,6.9,-,N/A,,Haze,300,2013-08-30 02:53:00
8:58 PM,84.0,30.6,14,29.88,6.0,WNW,5.8,-,N/A,,Haze,300,2013-08-30 02:58:00
9:23 PM,82.4,32.0,16,29.98,10.0,NNW,5.8,-,N/A,,Clear,330,2013-08-30 03:23:00
9:58 PM,79.3,34.2,20,29.91,10.0,NE,4.6,-,N/A,,Clear,50,2013-08-30 03:58:00
10:58 PM,75.4,34.5,23,29.91,10.0,NNE,4.6,-,N/A,,Clear,30,2013-08-30 04:58:00
11:58 PM,69.8,37.0,30,29.93,10.0,Variable,1.2,-,N/A,,Clear,0,2013-08-30 05:58:00